TimeCDT,TemperatureF,Dew PointF,Humidity,Sea Level PressureIn,VisibilityMPH,Wind Direction,Wind SpeedMPH,Gust SpeedMPH,PrecipitationIn,Events,Conditions,WindDirDegrees,DateUTC
12:15 AM,46.4,46.4,100,29.99,5.0,Calm,Calm,-,N/A,,Clear,0,2013-09-25 05:15:00
12:35 AM,44.6,44.6,100,29.99,5.0,Calm,Calm,-,N/A,,Clear,0,2013-09-25 05:35:00
12:55 AM,46.4,44.6,93,29.99,7.0,Calm,Calm,-,N/A,,Clear,0,2013-09-25 05:55:00
1:15 AM,46.4,46.4,100,29.99,5.0,Calm,Calm,-,N/A,,Clear,0,2013-09-25 06:15:00
1:35 AM,44.6,44.6,100,29.99,5.0,Calm,Calm,-,N/A,,Clear,0,2013-09-25 06:35:00
1:55 AM,44.6,44.6,100,29.99,5.0,Calm,Calm,-,N/A,,Clear,0,2013-09-25 06:55:00
2:35 AM,44.6,44.6,100,29.98,1.0,Calm,Calm,-,N/A,,Mist,0,2013-09-25 07:35:00
2:55 AM,46.4,46.4,100,29.98,4.0,Calm,Calm,-,N/A,,Clear,0,2013-09-25 07:55:00
3:15 AM,44.6,44.6,100,29.98,2.5,Calm,Calm,-,N/A,,Clear,0,2013-09-25 08:15:00
3:35 AM,44.6,44.6,100,29.98,4.0,Calm,Calm,-,N/A,,Clear,0,2013-09-25 08:35:00
3:55 AM,46.4,46.4,100,29.98,3.0,Calm,Calm,-,N/A,,Clear,0,2013-09-25 08:55:00
4:35 AM,44.6,44.6,100,29.99,2.0,Calm,Calm,-,N/A,,Clear,0,2013-09-25 09:35:00
4:55 AM,44.6,44.6,100,29.99,2.5,Calm,Calm,-,N/A,,Clear,0,2013-09-25 09:55:00
5:15 AM,44.6,44.6,100,29.99,2.5,Calm,Calm,-,N/A,,Clear,0,2013-09-25 10:15:00
5:35 AM,42.8,42.8,100,29.99,1.0,Calm,Calm,-,N/A,,Mist,0,2013-09-25 10:35:00
6:45 AM,46.4,46.4,100,30.00,3.0,Calm,Calm,-,N/A,Fog,Patches of Fog,0,2013-09-25 11:45:00
7:45 AM,46.4,46.4,100,30.01,5.0,WNW,3.5,-,N/A,,Scattered Clouds,290,2013-09-25 12:45:00
8:50 AM,53.6,53.6,100,30.01,5.0,NNE,5.8,-,N/A,,Scattered Clouds,30,2013-09-25 13:50:00
9:45 AM,59.0,55.4,88,30.02,7.0,ENE,5.8,-,N/A,,Scattered Clouds,70,2013-09-25 14:45:00
10:45 AM,60.8,53.6,77,30.02,10.0,ENE,5.8,-,N/A,,Mostly Cloudy,70,2013-09-25 15:45:00
11:45 AM,64.4,51.8,64,30.02,10.0,ESE,9.2,-,N/A,,Mostly Cloudy,110,2013-09-25 16:45:00
12:45 PM,64.4,50.0,59,30.01,10.0,East,9.2,-,N/A,,Mostly Cloudy,80,2013-09-25 17:45:00
1:45 PM,64.4,48.2,56,30.00,10.0,ESE,9.2,-,N/A,,Scattered Clouds,110,2013-09-25 18:45:00
2:45 PM,66.2,50.0,56,29.99,10.0,ENE,8.1,-,N/A,,Scattered Clouds,70,2013-09-25 19:45:00
3:45 PM,64.4,50.0,59,29.99,10.0,East,6.9,-,N/A,,Scattered Clouds,100,2013-09-25 20:45:00
4:45 PM,62.6,48.2,59,29.99,10.0,East,9.2,-,N/A,,Partly Cloudy,80,2013-09-25 21:45:00
5:45 PM,60.8,50.0,68,29.99,10.0,ENE,9.2,-,N/A,,Clear,70,2013-09-25 22:45:00
6:45 PM,57.2,48.2,72,29.99,10.0,ENE,5.8,-,N/A,,Clear,70,2013-09-25 23:45:00
7:45 PM,53.6,48.2,82,30.00,10.0,Calm,Calm,-,N/A,,Clear,0,2013-09-26 00:45:00
8:45 PM,51.8,48.2,88,30.00,10.0,Calm,Calm,-,N/A,,Clear,0,2013-09-26 01:45:00
9:15 PM,48.2,46.4,93,30.00,7.0,Calm,Calm,-,N/A,,Clear,0,2013-09-26 02:15:00
9:35 PM,48.2,48.2,100,30.00,7.0,Calm,Calm,-,N/A,,Clear,0,2013-09-26 02:35:00
9:55 PM,48.2,46.4,93,30.00,7.0,Calm,Calm,-,N/A,,Clear,0,2013-09-26 02:55:00
10:15 PM,48.2,46.4,93,30.00,3.0,Calm,Calm,-,N/A,,Clear,0,2013-09-26 03:15:00
10:35 PM,46.4,46.4,100,30.00,5.0,Calm,Calm,-,N/A,,Clear,0,2013-09-26 03:35:00
10:55 PM,46.4,46.4,100,30.01,4.0,Calm,Calm,-,N/A,,Clear,0,2013-09-26 03:55:00
11:15 PM,46.4,46.4,100,30.01,4.0,Calm,Calm,-,N/A,,Clear,0,2013-09-26 04:15:00
11:35 PM,46.4,46.4,100,30.01,4.0,Calm,Calm,-,N/A,,Clear,0,2013-09-26 04:35:00
11:55 PM,46.4,46.4,100,30.01,4.0,Calm,Calm,-,N/A,,Clear,0,2013-09-26 04:55:00